User: anonymous   Login
Location: Caltech
(34.1382°N, 118.1253°W)
Time: 13:20:34
(UTC-07:00)
Language:

ASTRO E2 - Orbit

View from above orbital plane
View from above orbital plane
View from above satellite
View from above satellite

Ground track
Ground track

The orbit data is extracted from the following two-line orbital elements,

1 28773U 05025A   15149.00552055  .00002656  00000-0  14305-3 0  9996
2 28773 031.3824 111.9048 0004875 027.9432 332.1475 15.12776645543523
Epoch (UTC): 29 May 2015 00:07:56
Eccentricity: 0.0004875
inclination: 31.3824°
perigee height: 524 km
apogee height: 531 km
right ascension of ascending node: 111.9048°
argument of perigee: 27.9432°
revolutions per day: 15.12776645
mean anomaly at epoch: 332.1475°
orbit number at epoch: 54352

The dashed part of the orbit path shows where the satellite is in the earth's shadow,  

DLR